Wind_Speed
22 20 19 18 16 15 16 16 16 15 16 17 16 14 12 11 11 12 11 10 10 10 10 10 10 9 8 7 6 5 6 7 6 5 4 4 4 4 5 6 7 8 7 7 8 7 6 8 11 12 11 8 6 5 8 14 14 10 8 6 5 4
22 20 20 19 18 18 18 17 16 16 16 15 14 12 10 10 10 11 10 9 10 11 11 12 12 12 11 9 7 5 5 5 5 5 5 4 5 5 6 7 7 7 8 7 7 7 7 9 11 12 11 8 6 5 8 15 13 9 7 6 5 4
22 21 20 19 18 19 18 18 17 16 14 13 11 11 11 11 11 10 10 9 11 12 13 13 13 13 12 11 9 7 6 4 4 5 6 5 5 5 6 7 7 7 7 7 7 7 7 9 11 13 11 7 6 4 7 13 11 8 7 5 5 5
22 20 20 18 17 19 19 18 16 14 13 12 11 12 12 12 12 11 11 10 11 12 13 12 12 12 12 12 12 9 7 6 5 5 6 5 6 6 6 8 8 7 7 7 6 6 7 9 11 12 9 6 6 5 6 12 11 8 6 5 5 5
22 20 19 18 17 18 18 17 16 15 13 13 13 14 13 12 12 13 12 11 11 11 12 12 11 11 10 9 10 9 8 9 8 7 7 6 6 7 7 8 9 9 9 8 7 6 6 8 11 10 9 7 6 5 6 11 10 8 7 6 5 6
22 21 20 19 18 18 18 16 16 17 15 14 14 13 12 14 15 15 15 13 13 12 13 13 11 11 10 7 7 9 10 11 11 9 8 8 8 7 7 9 9 9 10 10 8 7 7 8 10 9 8 7 6 4 5 10 11 9 7 7 6 6
21 20 20 20 18 18 18 15 14 16 15 15 14 12 14 17 18 16 15 15 15 15 14 14 12 11 10 8 9 12 12 13 14 12 10 9 9 8 9 9 9 9 10 10 9 7 5 6 8 7 6 5 5 3 4 8 11 10 8 7 7 7
17 18 18 17 16 18 18 16 16 16 16 16 16 16 17 19 20 16 16 16 17 18 16 15 13 12 12 9 12 14 13 14 16 15 12 10 10 9 10 10 11 11 11 10 8 5 4 6 8 6 4 5 5 4 4 7 11 10 9 9 8 8
17 18 16 15 16 17 18 20 18 16 17 19 20 20 19 19 19 16 17 16 18 20 18 16 13 14 14 11 14 16 14 16 16 16 14 12 12 11 11 12 12 12 11 9 6 5 5 8 9 6 4 7 7 5 5 8 11 10 9 10 10 9
19 18 15 15 17 16 16 18 18 15 19 23 21 20 19 19 19 17 19 18 19 19 18 17 15 16 16 14 19 18 15 15 14 15 15 12 12 12 11 12 13 13 11 9 8 8 9 10 11 9 8 9 8 6 6 8 10 9 9 10 11 10
18 17 16 15 15 15 14 15 19 18 18 18 16 15 16 17 17 18 21 21 20 18 17 18 17 17 16 15 20 19 16 15 14 15 16 14 12 11 11 12 13 13 11 9 11 11 10 12 12 10 10 9 7 7 7 8 8 8 9 11 11 11
16 16 15 12 12 13 12 16 22 19 14 11 9 11 13 13 13 16 19 21 21 19 17 17 15 16 16 15 17 17 16 16 15 15 16 16 13 12 13 14 14 13 12 11 13 12 11 12 12 11 11 9 7 7 8 8 8 8 10 11 11 12
16 16 14 11 10 10 11 17 19 13 11 10 8 9 11 13 13 13 14 14 16 18 18 17 15 16 16 16 16 16 16 16 16 16 15 15 14 15 14 15 14 13 13 13 13 13 12 11 11 11 11 9 8 7 7 7 6 6 10 12 11 12
16 16 15 12 12 12 12 14 12 10 9 9 9 8 9 13 14 14 14 12 14 17 18 18 18 17 15 16 16 15 15 15 17 17 15 15 17 17 14 14 14 13 14 15 14 13 12 12 10 10 10 9 8 6 4 5 5 4 7 10 11 12
18 18 17 16 16 15 13 12 11 11 9 9 13 9 8 12 14 14 15 15 14 16 18 19 17 14 13 15 16 15 14 14 15 16 15 16 18 17 15 14 14 14 15 15 15 13 12 11 10 10 9 8 7 6 4 3 4 4 5 6 8 11
22 21 19 17 16 15 14 13 13 13 10 12 14 9 8 11 12 13 12 12 14 15 18 19 17 15 14 14 14 14 13 12 14 15 15 16 17 17 16 16 16 16 17 17 16 14 12 12 11 10 9 8 7 6 5 4 4 4 6 6 5 7
22 21 19 17 15 14 13 12 12 12 11 11 10 8 8 9 9 11 11 11 14 16 16 17 18 19 17 14 14 13 12 11 14 16 16 16 16 16 16 16 16 15 16 16 16 14 13 12 10 10 9 7 6 4 4 3 2 2 3 4 5 4
20 18 16 15 14 14 13 13 12 11 10 11 12 9 8 8 7 9 10 10 13 15 12 13 16 17 17 16 14 13 13 12 14 17 16 15 16 16 15 15 15 15 14 14 15 15 13 11 9 9 7 5 4 3 2 1 2 2 1 2 3 3
17 15 15 15 16 16 14 14 13 12 11 13 14 12 11 11 10 9 10 9 11 12 11 12 14 14 17 17 14 14 14 12 14 17 16 14 14 15 15 14 15 15 13 12 12 12 11 9 7 7 7 6 5 4 3 2 3 4 5 4 3 2
16 15 17 17 17 16 14 14 15 15 15 14 14 15 15 14 13 12 11 10 11 12 14 16 16 15 16 15 14 13 13 12 14 16 15 13 12 12 12 12 12 13 12 11 10 9 8 7 6 5 6 6 6 4 4 3 3 4 5 7 7 5
17 17 19 19 17 17 16 15 17 19 18 16 15 16 16 15 15 14 12 12 12 12 14 16 17 17 16 14 13 12 10 9 11 13 13 12 10 9 10 9 9 10 11 10 9 8 7 7 7 6 6 6 5 4 4 3 2 3 5 7 9 8
19 19 20 19 18 18 17 17 20 23 21 19 16 16 17 16 16 16 15 15 14 12 11 11 12 13 12 12 13 12 9 7 8 10 11 11 9 8 8 8 9 10 9 7 8 9 8 8 7 4 4 4 3 3 4 4 3 3 5 6 8 7
22 22 21 20 19 19 18 17 21 24 22 19 17 15 15 15 15 16 15 15 14 12 11 10 9 8 8 9 9 9 8 6 6 8 10 10 10 8 9 9 9 9 8 7 7 7 8 9 6 3 2 1 0 1 2 3 2 2 3 4 5 6
24 23 22 21 20 19 18 18 21 23 20 18 17 14 13 13 13 13 12 12 11 11 11 12 10 9 9 9 8 9 9 8 7 7 8 9 10 9 9 10 10 9 9 8 8 6 8 10 8 5 2 1 1 2 1 2 2 1 3 3 3 5
25 24 24 23 21 18 19 22 24 23 20 19 17 15 15 13 12 13 12 12 12 12 13 13 11 10 10 10 10 9 9 8 7 6 6 6 7 8 8 9 9 10 10 9 9 7 7 10 10 7 2 0 1 1 1 2 4 2 4 4 4 4
24 25 25 23 21 19 22 25 25 23 22 21 19 17 16 15 14 14 13 13 13 12 11 10 9 11 12 13 11 10 8 8 7 6 5 4 5 5 6 7 7 8 8 7 8 8 7 9 11 8 3 3 3 2 1 1 2 1 5 5 4 4
26 27 25 23 22 22 24 25 24 23 22 22 20 18 18 18 17 15 14 13 13 12 11 9 9 10 12 14 14 13 11 9 8 7 6 6 6 5 5 6 5 6 7 7 7 7 9 10 9 7 5 2 3 3 3 2 2 0 3 3 5 6
27 27 24 24 26 25 26 26 24 22 21 22 22 21 20 18 17 17 16 15 15 14 13 12 11 11 11 12 14 15 14 13 12 11 11 11 9 8 7 7 7 7 7 6 5 6 9 10 6 5 4 2 2 2 3 3 2 1 1 1 5 6
29 28 26 28 29 27 26 26 25 24 24 23 23 23 21 19 18 18 18 17 16 15 13 12 12 13 13 13 14 14 14 15 16 15 15 15 14 12 11 10 9 8 10 9 6 6 8 8 5 5 6 5 6 6 6 6 5 3 2 1 3 3
31 29 29 32 30 27 27 26 26 27 26 25 25 24 22 21 20 19 19 18 16 15 13 12 12 12 14 14 14 12 11 12 13 13 13 13 13 12 12 12 11 10 12 13 12 11 11 9 8 8 8 7 8 8 7 7 8 8 4 1 1 3
32 31 33 33 30 29 27 26 26 26 26 27 27 26 24 23 21 20 19 18 16 15 14 14 13 13 13 13 12 11 10 11 11 11 11 10 10 10 10 10 11 12 13 13 13 12 12 11 10 10 9 8 8 8 7 7 7 7 6 3 1 3
33 32 33 33 31 29 27 25 24 25 26 28 28 27 27 25 23 22 21 19 18 17 16 15 14 13 13 12 11 11 12 13 13 12 11 10 10 9 8 8 9 11 11 11 10 9 10 9 8 9 9 8 7 7 7 7 5 5 5 4 3 1
35 35 35 34 32 29 26 25 26 27 28 28 29 28 27 27 25 24 23 22 21 19 18 16 14 14 13 12 11 12 13 13 13 11 10 10 10 9 9 9 10 10 10 9 7 6 8 8 7 7 8 7 6 6 6 6 5 5 5 4 5 5
29 28 29 28 29 29 27 26 26 27 28 29 29 29 27 27 27 25 24 24 22 21 19 17 15 15 14 13 12 12 13 13 12 10 10 10 9 9 11 12 12 11 11 9 8 7 8 9 8 7 7 6 5 5 5 5 4 4 5 6 7 7
17 17 17 13 15 18 18 23 26 26 29 31 30 29 28 27 28 27 26 25 24 22 20 18 17 15 14 14 13 12 13 13 12 10 9 10 9 9 9 11 12 12 12 10 9 9 8 8 8 8 7 6 6 5 3 4 3 3 4 6 7 8
18 21 22 18 18 17 12 16 24 26 29 33 32 30 29 29 29 28 27 26 25 22 21 20 18 17 16 14 13 12 13 13 12 10 9 9 9 8 8 9 10 10 10 9 9 9 8 7 7 7 8 7 7 7 6 6 6 5 4 4 5 6
14 18 21 22 26 25 17 15 21 28 30 33 33 31 30 31 31 29 27 27 26 24 23 21 19 18 17 14 12 11 12 13 13 11 10 9 8 7 6 7 7 7 7 7 6 7 7 7 6 6 6 6 7 8 8 8 9 9 7 5 5 5
Wind_Direction
167 160 154 154 158 159 160 157 153 159 164 169 168 165 169 173 178 178 174 170 169 175 178 185 193 199 199 198 195 187 178 169 163 155 157 158 152 160 167 166 154 144 138 135 135 136 134 141 159 166 159 144 109 97 147 155 149 148 147 138 136 141
168 162 159 160 162 162 160 157 161 169 170 169 161 159 170 179 189 191 184 174 179 184 188 194 196 199 197 199 202 200 196 180 172 167 170 172 163 169 175 175 166 153 145 140 140 140 138 145 159 165 157 138 95 81 151 157 155 157 151 139 139 146
169 164 164 165 165 164 162 161 167 173 170 162 156 170 186 192 192 196 198 188 191 193 195 200 199 203 200 199 205 203 203 193 189 183 177 177 170 172 179 182 176 166 162 159 157 150 144 148 160 166 156 131 100 89 152 163 163 162 152 140 139 145
170 166 167 170 170 168 166 164 168 171 171 167 175 191 199 204 194 191 205 203 200 199 203 206 201 208 211 208 205 197 200 200 204 201 183 180 179 175 177 184 184 184 184 181 176 165 153 149 160 170 161 134 117 114 158 173 173 168 157 142 138 144
172 170 175 177 175 174 169 164 170 175 176 183 194 202 204 209 204 193 200 208 207 204 209 212 203 207 220 220 203 189 196 205 206 204 194 188 186 181 180 185 189 192 191 185 175 165 156 149 153 163 162 149 134 126 157 176 180 177 162 142 136 146
177 178 184 186 185 179 172 171 180 181 180 195 205 208 210 213 215 204 196 202 207 206 210 213 206 202 210 216 208 192 192 207 208 202 201 196 190 188 187 187 187 190 190 185 174 164 156 152 154 156 160 154 137 129 153 176 184 179 161 142 140 150
180 183 189 195 192 171 165 177 192 190 190 206 210 214 224 221 219 211 198 199 205 207 209 211 209 209 205 190 204 205 197 207 206 201 204 195 191 194 191 183 176 178 182 181 175 173 176 177 174 168 176 166 138 148 168 178 184 178 159 143 143 152
182 187 192 199 189 163 162 182 198 200 200 211 213 215 225 224 223 216 202 202 207 210 212 210 207 217 221 199 204 210 202 206 204 201 201 191 193 197 191 180 170 170 174 177 178 192 216 199 181 175 201 189 159 170 179 174 179 178 162 146 141 148
184 190 192 192 181 171 175 183 191 198 201 209 214 220 226 228 231 220 204 207 209 211 215 212 203 211 223 212 205 210 207 206 202 198 197 193 198 200 191 179 174 174 173 178 182 186 182 165 157 149 151 159 158 169 176 174 177 182 171 154 144 145
180 190 189 180 175 177 181 180 186 191 199 209 219 228 232 233 238 223 207 213 215 215 219 215 206 208 218 210 202 206 209 207 204 202 204 205 204 205 197 184 182 182 179 182 180 172 166 158 158 159 150 143 144 156 171 177 178 182 180 167 154 150
170 181 181 176 173 172 170 176 184 185 191 206 221 234 234 232 238 227 214 219 221 219 221 217 210 208 216 214 200 198 204 207 207 204 209 217 216 212 209 204 200 192 191 194 185 179 175 172 171 171 168 157 141 141 154 169 176 182 186 180 169 160
163 172 176 176 174 170 159 161 168 168 170 183 201 220 229 230 231 227 220 221 221 220 221 215 207 207 217 221 202 192 198 203 206 204 208 220 220 210 211 215 211 202 206 206 194 188 185 180 174 172 173 166 145 131 137 152 170 187 193 191 182 176
168 170 174 169 165 171 158 152 153 151 154 161 173 198 219 224 225 220 212 213 213 214 216 212 208 210 215 213 199 192 197 198 204 206 209 214 206 200 206 209 207 206 210 207 198 192 190 184 176 176 177 174 158 133 124 133 146 178 199 201 196 192
167 167 168 156 150 157 156 151 149 148 152 161 170 188 208 212 216 209 201 206 206 201 202 208 212 214 215 205 192 188 188 188 195 198 201 202 194 194 200 197 194 197 198 197 196 193 194 190 182 182 180 181 176 158 142 133 125 135 186 205 210 207
156 158 157 149 146 149 150 148 149 150 151 167 174 183 197 203 209 200 197 206 202 193 192 198 205 211 219 209 194 185 178 181 188 186 190 197 194 193 193 187 185 185 182 182 185 186 191 194 192 191 184 181 180 171 164 149 142 134 147 182 209 219
149 152 151 146 143 141 139 138 148 151 151 167 172 177 182 196 209 197 190 192 188 189 190 192 195 198 209 211 199 187 180 185 190 185 187 192 192 191 190 186 183 182 180 177 181 183 187 192 194 190 179 171 169 166 160 143 142 147 148 162 181 208
154 156 157 154 149 143 138 135 144 144 138 145 152 161 166 179 200 194 187 180 176 186 193 194 191 188 195 209 207 194 189 193 193 192 191 190 189 189 191 191 184 185 188 184 184 187 186 186 187 183 174 164 159 157 160 157 151 137 140 156 169 188
160 161 160 156 149 143 140 138 140 141 130 117 121 136 144 154 173 175 176 172 167 174 184 186 184 184 193 208 212 201 198 197 195 198 198 194 190 189 193 197 192 190 196 197 196 197 195 193 194 196 199 201 203 201 195 227 264 268 245 163 160 182
162 161 155 148 142 138 139 141 143 145 136 119 118 125 123 131 142 146 154 156 157 163 167 165 168 179 192 202 205 200 200 197 196 200 202 200 194 191 193 199 202 200 198 201 204 204 199 197 196 204 216 220 219 222 231 260 285 286 271 252 225 198
163 160 153 148 146 146 145 140 138 139 136 127 120 117 114 120 128 134 139 140 147 160 169 166 164 175 188 196 198 197 195 190 194 203 208 208 200 196 198 196 202 204 196 189 189 194 197 193 180 175 192 201 204 220 243 262 276 280 269 256 246 237
166 163 161 159 156 156 152 141 138 139 137 133 125 117 113 115 123 129 133 138 141 149 166 169 167 174 182 188 190 189 188 185 195 206 213 219 213 208 211 205 202 200 191 185 183 189 201 201 188 169 160 170 189 214 237 259 270 266 263 257 250 244
170 169 170 169 165 160 153 147 145 143 140 134 127 120 115 114 118 121 124 130 131 132 146 156 157 164 173 179 179 178 185 194 200 205 211 219 221 218 215 206 200 195 188 191 195 193 195 194 198 192 151 146 181 213 235 243 250 274 277 264 256 254
175 174 176 175 171 163 157 156 150 144 142 136 130 128 124 121 123 121 122 126 126 129 137 147 152 156 163 171 173 170 178 191 199 206 212 218 221 220 215 203 197 195 193 200 204 203 204 199 195 183 136 96 213 221 262 244 229 280 311 292 262 256
178 177 177 176 173 167 163 159 148 142 140 135 132 135 132 129 130 126 126 130 134 134 132 137 146 152 158 166 168 163 166 177 190 203 213 220 221 220 218 212 205 201 201 206 209 208 216 217 206 187 179 320 39 60 338 305 329 333 344 331 288 271
180 179 181 181 178 174 165 153 143 138 134 130 130 136 135 131 132 129 124 123 128 132 128 124 122 126 141 156 164 164 163 170 180 192 205 217 221 222 220 214 210 207 208 212 211 202 207 216 209 199 199 110 62 25 241 324 359 349 352 345 313 302
180 181 183 186 185 176 164 156 150 143 138 135 135 138 138 134 133 131 125 121 121 128 134 127 114 110 117 130 144 157 163 171 179 181 185 188 190 196 198 200 204 207 213 215 207 198 194 199 203 207 196 124 87 61 156 61 50 328 339 355 357 342
179 182 186 189 185 174 165 163 161 155 150 147 144 141 138 134 131 129 125 122 119 119 124 121 112 109 112 118 124 130 133 145 162 164 154 146 148 156 163 170 173 184 203 210 205 197 187 181 186 199 202 153 79 67 70 67 96 93 337 343 348 355
176 183 187 184 179 174 169 166 164 162 159 155 148 143 141 137 133 131 125 123 122 119 115 108 104 105 111 115 113 113 112 115 124 130 128 123 126 140 147 146 141 146 166 183 194 191 182 180 176 176 172 121 72 63 53 53 48 47 98 323 326 347
177 183 184 177 175 174 170 167 166 165 160 154 148 145 144 140 137 134 129 127 127 126 121 110 105 104 107 111 109 108 107 109 113 118 118 114 114 118 119 123 124 123 125 124 127 139 152 162 161 148 138 118 102 91 80 71 55 53 101 79 316 321
179 184 181 175 174 171 169 167 166 163 157 153 151 149 147 143 142 139 135 134 132 131 131 124 115 110 109 111 112 111 108 108 112 116 115 112 112 111 107 108 108 111 114 110 110 112 115 123 126 125 127 121 107 96 87 72 58 58 71 64 331 304
182 185 181 177 174 170 169 170 167 164 161 159 157 154 152 149 150 148 144 143 139 136 136 134 129 123 118 117 117 114 109 108 112 115 116 113 115 117 112 108 107 110 113 112 111 108 105 110 114 116 117 114 107 99 90 76 61 58 63 57 19 308
183 184 181 179 177 173 174 175 172 171 169 166 163 160 157 156 158 157 153 149 147 143 139 136 135 133 132 129 124 116 111 109 108 108 109 110 114 117 118 115 115 117 116 114 114 110 108 109 115 117 111 106 101 93 84 80 72 64 64 59 52 334
186 188 186 184 181 178 178 177 174 176 175 171 169 166 162 163 164 163 159 156 153 150 146 144 141 139 141 142 135 126 118 112 106 103 104 105 105 106 108 108 110 116 117 117 115 114 114 113 117 117 108 103 98 91 85 77 74 71 62 46 41 23
184 186 185 185 184 181 179 177 176 178 179 176 174 172 169 169 170 169 166 163 161 157 154 152 149 145 145 145 141 134 127 121 114 110 109 109 105 102 103 101 100 103 104 106 107 109 114 115 113 109 103 104 99 93 86 71 64 59 47 41 43 31
165 165 170 169 169 176 181 180 180 182 184 182 180 179 178 176 175 176 174 169 166 163 158 156 154 151 148 147 146 143 140 136 129 123 119 116 110 103 100 96 95 96 93 94 98 103 109 114 111 101 91 88 82 77 64 38 24 21 38 49 49 39
160 164 173 168 163 179 199 189 187 192 191 187 185 184 184 182 181 182 180 174 170 165 160 157 157 156 154 151 147 146 150 148 142 134 131 130 119 105 100 97 95 94 89 87 89 94 101 102 98 92 86 77 61 54 51 45 40 36 51 59 47 37
150 155 160 162 167 180 200 210 203 200 196 192 189 188 189 187 186 188 187 181 174 168 162 160 160 160 160 158 152 147 148 150 148 143 136 136 130 116 111 109 105 98 91 88 82 85 91 90 89 89 86 76 51 49 59 60 56 56 59 55 43 31
Height
796 799 801 801 803 805 807 810 812 813 813 815 816 818 819 820 821 822 823 824 825 825 825 825 826 827 828 828 827 827 827 828 828 829 830 831 832 832 833 833 832 831 830 830 830 830 830 831 832 833 835 835 835 835 834 835 836 836 837 837 837 837
797 799 800 801 804 805 808 809 811 811 812 815 817 820 821 821 822 822 823 825 825 825 825 825 826 827 827 828 827 828 828 829 829 829 829 830 831 832 833 833 832 832 831 830 830 830 830 831 832 833 835 836 836 835 834 835 836 837 837 837 837 837
798 800 800 802 804 805 808 809 810 812 814 816 818 820 819 818 819 822 824 824 823 823 824 825 825 826 827 827 827 828 830 830 830 829 829 829 831 832 833 833 832 832 831 831 830 830 830 831 832 833 835 836 836 836 835 836 836 837 837 837 837 837
798 800 801 802 804 805 808 810 811 813 814 816 817 817 816 816 818 821 822 823 823 823 823 824 825 826 826 826 825 828 830 830 830 829 829 829 830 831 832 832 832 832 831 831 830 830 830 831 833 834 835 836 836 836 836 836 837 837 838 837 837 837
798 800 802 802 803 805 807 810 811 812 813 813 814 814 814 815 817 820 822 822 822 822 823 824 825 826 825 824 824 827 829 829 829 830 830 829 830 830 831 831 831 831 830 831 831 831 831 832 833 834 835 835 836 836 836 837 837 838 838 838 838 837
798 801 803 803 804 806 807 809 810 810 811 811 812 811 812 813 816 821 822 822 822 822 823 824 826 827 826 824 824 826 827 828 828 829 829 829 830 830 830 830 830 830 830 830 831 831 832 832 833 834 834 835 835 835 836 837 837 838 838 838 838 838
801 804 804 805 806 808 810 811 811 811 811 811 812 812 812 813 816 820 821 821 821 822 822 823 824 826 826 824 823 825 826 826 827 828 828 829 829 829 829 829 829 829 830 830 831 831 832 833 833 834 834 835 835 835 835 836 837 838 838 838 838 838
803 804 804 805 807 808 810 811 811 811 811 811 812 813 813 814 816 819 820 820 820 821 821 820 821 823 824 823 823 824 824 824 827 828 828 828 829 829 829 829 829 829 829 830 830 831 831 832 833 834 834 835 835 835 835 836 837 838 838 838 839 839
800 800 802 804 806 807 808 809 810 811 812 812 812 813 814 815 816 818 819 819 819 819 819 819 819 821 822 823 823 823 823 823 825 827 828 828 829 829 829 829 829 829 829 829 830 830 831 832 833 834 834 834 835 835 835 836 837 838 838 838 838 839
796 799 802 804 804 804 806 808 809 811 814 815 813 813 813 813 815 817 818 818 819 819 819 818 818 819 820 821 822 822 823 824 825 827 828 829 829 830 830 830 829 829 829 829 830 830 831 832 832 833 834 834 834 835 835 836 837 838 838 838 838 838
796 799 801 802 803 803 804 806 809 811 814 815 813 812 812 812 813 815 817 817 818 819 819 817 817 818 818 820 822 823 823 825 826 827 828 829 830 831 831 831 830 829 829 829 830 830 831 831 832 833 833 834 834 834 835 835 836 837 838 838 838 838
796 799 800 802 803 803 804 805 808 810 812 813 812 812 811 811 813 815 816 816 817 818 818 817 817 817 817 819 821 823 824 825 826 827 829 830 831 831 831 831 831 830 829 829 829 830 831 831 831 832 832 833 833 834 834 835 836 837 837 838 838 838
798 800 801 802 802 803 804 805 807 809 810 811 811 811 811 811 812 814 815 815 817 818 818 817 816 817 817 818 819 822 823 823 825 827 829 830 831 831 831 831 831 830 829 828 829 830 831 831 831 832 832 833 833 834 834 835 836 836 837 837 838 838
799 800 802 803 803 804 805 806 807 808 809 810 810 811 811 810 811 812 812 812 814 815 816 818 817 816 817 818 819 820 822 823 824 826 828 830 831 831 831 831 830 830 829 828 829 830 831 832 832 832 832 832 833 834 834 835 836 836 836 837 837 838
799 801 802 803 804 805 805 806 807 807 808 809 810 810 810 810 810 810 809 810 812 813 814 817 816 816 816 817 818 820 821 822 824 825 827 829 830 831 831 830 830 829 828 828 829 830 831 832 832 832 832 832 833 833 834 835 835 836 836 837 837 838
800 802 803 804 805 805 806 807 807 808 808 808 809 810 809 809 808 808 808 809 811 812 813 815 814 813 814 816 818 819 821 822 824 825 827 828 829 830 830 829 829 828 828 828 828 830 831 832 832 832 832 833 833 833 833 834 835 835 836 836 837 837
800 802 803 804 805 805 806 807 807 808 809 809 809 809 809 808 807 807 807 808 810 812 813 813 811 811 812 815 817 819 821 823 824 825 826 827 828 829 829 828 828 828 827 828 829 830 831 832 832 832 833 833 833 833 833 834 835 835 836 836 837 837
800 801 803 804 804 805 806 806 807 807 808 809 809 809 809 809 808 807 807 807 809 810 811 811 810 811 813 815 818 820 822 823 824 825 825 826 826 827 828 828 827 827 827 828 829 830 831 832 832 833 833 833 833 833 833 834 834 835 835 836 836 837
799 800 802 803 803 804 805 805 806 806 808 809 810 810 810 809 809 809 809 808 809 810 811 811 811 813 815 817 819 821 822 823 823 824 825 825 825 826 827 827 827 827 827 828 829 830 831 832 832 833 834 834 834 834 834 834 834 834 835 835 836 836
798 800 802 803 803 804 804 805 805 806 807 809 810 811 811 811 811 812 811 811 811 812 813 814 815 815 817 819 820 821 821 822 823 823 824 824 825 826 826 826 827 827 828 828 829 830 831 832 833 833 834 834 834 834 834 834 834 834 834 835 835 836
798 800 801 802 802 803 803 804 804 805 807 809 810 811 812 813 813 814 814 814 814 815 815 817 818 818 820 820 821 821 821 822 822 823 823 824 825 825 826 826 826 827 828 828 829 830 831 832 833 834 834 834 834 834 834 834 834 834 834 834 834 835
798 800 801 802 802 802 803 803 804 805 807 809 810 811 812 813 814 815 816 816 817 817 818 819 819 820 821 821 821 821 822 822 822 822 823 823 824 825 825 825 826 827 828 828 829 829 831 832 833 834 833 833 834 834 834 833 834 834 833 833 834 834
798 799 801 802 802 802 803 804 804 806 807 809 810 811 813 814 814 815 816 817 818 819 819 820 820 821 821 821 821 822 822 822 822 822 823 823 824 824 824 825 825 826 827 829 830 830 831 831 831 833 833 833 833 834 833 833 833 833 833 833 833 834
797 799 801 802 802 803 803 805 806 807 808 809 811 812 813 814 815 815 816 817 818 819 820 821 821 821 821 821 821 822 822 822 822 822 822 822 823 823 823 824 825 826 827 829 830 830 830 831 831 833 833 833 833 834 834 833 833 833 833 833 833 834
797 799 800 801 802 802 803 804 806 807 809 810 812 813 814 815 815 816 816 817 818 820 820 821 821 821 821 821 821 822 822 822 822 822 822 822 822 823 823 824 824 825 826 828 829 830 830 831 831 832 833 833 834 835 835 834 834 833 833 833 834 834
796 798 799 800 801 802 802 803 805 806 808 811 813 814 815 815 816 816 817 817 818 819 820 821 821 821 821 821 821 822 822 823 823 823 823 823 823 823 823 824 825 826 827 828 828 829 830 830 831 831 832 833 834 834 834 834 835 835 834 833 834 834
795 797 798 799 800 801 802 803 804 806 808 810 812 815 816 816 817 817 817 818 818 819 820 820 821 821 821 821 821 822 822 823 823 823 823 823 823 824 824 824 825 826 827 828 828 829 830 830 831 832 833 833 833 834 834 834 836 837 836 835 834 834
793 795 797 798 799 799 801 802 804 807 808 810 812 814 816 817 817 818 818 818 819 820 820 821 821 821 822 822 822 822 823 823 823 824 824 824 824 824 824 825 826 826 827 828 829 829 830 830 831 833 833 833 834 835 835 835 836 837 838 837 835 834
791 793 795 797 798 798 800 802 804 807 809 810 812 814 816 817 818 818 818 819 819 820 821 821 822 822 822 822 823 823 824 824 824 825 825 825 825 825 826 826 827 827 827 828 829 829 830 830 831 832 833 834 835 836 836 836 837 837 837 838 838 836
788 791 793 796 797 798 800 802 804 806 808 810 812 814 816 817 818 818 818 819 819 820 821 822 822 823 823 823 824 825 825 825 826 826 827 827 827 827 827 828 828 828 828 829 830 830 830 831 832 833 834 834 835 836 836 837 837 837 837 838 838 837
786 789 792 795 797 799 801 802 804 806 808 810 811 813 815 817 818 818 818 819 819 820 821 822 823 823 824 824 825 825 825 826 826 827 827 827 828 828 828 829 829 829 830 830 831 831 831 832 832 833 834 835 835 836 837 837 838 838 838 838 839 838
786 789 791 794 797 798 801 802 803 806 808 810 811 813 814 816 818 818 818 819 820 820 821 822 823 823 824 825 825 826 826 826 827 827 828 828 829 829 829 830 830 831 831 831 832 832 833 833 834 834 835 836 836 836 837 838 838 838 838 839 839 838
784 787 790 793 796 797 800 801 803 806 809 810 812 813 814 815 817 818 818 819 819 820 821 822 823 823 824 825 825 826 826 827 827 828 829 829 830 830 830 831 831 832 832 833 833 834 834 835 835 836 836 837 837 838 838 839 839 839 839 839 838 838
784 788 791 794 796 797 800 801 804 807 809 811 812 813 814 815 817 818 818 818 818 819 820 822 823 823 824 825 826 826 827 827 828 828 829 830 830 831 831 832 832 833 833 834 835 835 835 836 837 837 838 838 838 839 839 839 840 840 839 839 839 838
785 788 793 796 800 803 805 804 805 807 808 810 811 812 814 815 817 818 817 817 817 819 820 821 823 823 824 825 826 827 827 827 828 829 829 830 831 832 832 833 833 834 834 835 835 836 836 837 838 838 839 839 840 840 840 840 840 840 840 840 840 839
783 785 788 792 800 808 809 807 806 807 807 809 810 811 813 814 816 817 816 816 816 817 819 820 822 823 824 825 826 827 827 828 828 829 830 830 831 832 833 834 834 835 835 836 836 837 837 838 838 839 840 840 841 841 841 841 841 841 841 841 841 840
786 788 788 790 796 803 807 807 807 806 807 808 809 810 812 813 815 816 816 816 816 817 818 819 821 822 824 825 826 827 827 828 829 829 830 831 831 832 833 834 835 835 836 837 837 838 838 839 839 840 840 841 842 842 842 842 842 842 842 842 842 841